Regional Weather Roundup
Issued by NWS

Home | Current Version | Previous Version | Graphics & Text | Print | Product List | Glossary On
Versions: 1 2 3 4 5 6 7 8 9 10 11 12 13 14 15 16 17 18 19 20 21 22 23 24 25 26 27 28 29 30 31 32 33 34 35 36 37 38 39 40 41 42 43 44 45 46 47 48 49 50
000
ASUS43 KDTX 291801
RWRMI
MICHIGAN HOURLY REGIONAL WEATHER ROUNDUP
NATIONAL WEATHER SERVICE DETROIT/PONTIAC MI
200 PM EDT WED MAR 29 2017

NOTE: "FAIR" INDICATES FEW OR NO CLOUDS BELOW 12,000 FEET WITH NO
SIGNIFICANT WEATHER AND/OR OBSTRUCTION TO VISIBILITY.

MIZ047>049-052>055-059>063-066>070-074>076-081>083-291900-
SOUTHEAST LOWER MICHIGAN

CITY           SKY/WX    TMP DP  RH WIND       PRES   REMARKS
ADRIAN         SUNNY     52  35  52 E5G18     30.28S
6HR MIN TEMP:  32; 6HR MAX TEMP:  53;

ALMA           MOSUNNY   52  32  46 NE9       30.29F
ANN ARBOR      SUNNY     54  32  43 VRB7      30.26F
BAD AXE        MOSUNNY   42  33  70 NE13      30.33R
6HR MIN TEMP:  26; 6HR MAX TEMP:  46;

CARO           MOSUNNY   49  40  71 N10G20    30.29F
DETROIT CITY   SUNNY     54  33  45 NE9       30.29R
6HR MIN TEMP:  34; 6HR MAX TEMP:  55;

DETROIT        PTSUNNY   55  32  41 E9        30.29R
6HR MIN TEMP:  34; 6HR MAX TEMP:  55;

FLINT          MOSUNNY   53  33  46 VRB6      30.28F
6HR MIN TEMP:  29; 6HR MAX TEMP:  55;

GROSSE ILE     SUNNY     47  36  65 S7        30.28S
6HR MIN TEMP:  33; 6HR MAX TEMP:  51;

HILLSDALE      SUNNY     52  32  46 E12       30.25F
HOWELL         MOSUNNY   52  29  41 E5        30.27F
6HR MIN TEMP:  30; 6HR MAX TEMP:  53;


CITY           SKY/WX    TMP DP  RH WIND       PRES   REMARKS
JACKSON        SUNNY     55  31  39 E8G17     30.25F
6HR MIN TEMP:  31; 6HR MAX TEMP:  55;

LAMBERTVILLE   SUNNY     52  32  47 E7        30.27F
6HR MIN TEMP:  34; 6HR MAX TEMP:  52;

LANSING        CLOUDY    54  31  41 NE12      30.28F
6HR MIN TEMP:  30; 6HR MAX TEMP:  54;

LAPEER         PTSUNNY   53  32  44 N9        30.27F
6HR MIN TEMP:  28; 6HR MAX TEMP:  54;

MASON          CLOUDY    51  36  56 E6        30.28S
MONROE         SUNNY     51  35  53 E5        30.27F
6HR MIN TEMP:  33; 6HR MAX TEMP:  52;

MT. CLEMENS    PTSUNNY   53  35  50 VRB3      30.26S
6HR MIN TEMP:  33; 6HR MAX TEMP:  53;

PONTIAC        PTSUNNY   53  30  41 E5        30.25F
6HR MIN TEMP:  31; 6HR MAX TEMP:  54;

PORT HOPE        N/A     38  32  79 NE9       30.33R WCI  31
6HR MIN TEMP:  34; 6HR MAX TEMP:  40;

PORT HURON     SUNNY     52  28  40 N8        30.28S
TRI CITIES     PTSUNNY   44  36  73 NE16      30.34R
6HR MIN TEMP:  29; 6HR MAX TEMP:  47;

MIDLAND        FAIR      45  34  64 E12G17    30.33R
6HR MIN TEMP:  28; 6HR MAX TEMP:  49;

TROY           MOSUNNY   55  28  35 E3        30.29S
SAGINAW HB     MOSUNNY   45  34  65 N16       30.33R
$$
MIZ043>046-050>051-056>058-064>065-071>073-077>080-291900-
SOUTHWEST LOWER MICHIGAN

CITY           SKY/WX    TMP DP  RH WIND       PRES   REMARKS
BATTLE CREEK   PTSUNNY   54  30  40 E13G22    30.25F
6HR MIN TEMP:  33; 6HR MAX TEMP:  54;

BENTON HARBOR  CLOUDY    55  34  45 E12       30.24F
6HR MIN TEMP:  30; 6HR MAX TEMP:  55;

BIG RAPIDS     CLOUDY    54  23  30 E5        30.27F
6HR MIN TEMP:  29; 6HR MAX TEMP:  54;

COLDWATER      MOSUNNY   54  31  40 SE13G20   30.24F
6HR MIN TEMP:  32; 6HR MAX TEMP:  54;

FREMONT        FAIR      53  26  35 E5        30.26F
HOLLAND        CLOUDY    52  34  50 E10       30.27F
6HR MIN TEMP:  31; 6HR MAX TEMP:  53;

GRAND RAPIDS   CLOUDY    51  35  54 E10       30.27F
6HR MIN TEMP:  30; 6HR MAX TEMP:  53;

IONIA          FAIR      51  32  47 E3G9      30.27F
6HR MIN TEMP:  31; 6HR MAX TEMP:  52;

KALAMAZOO      CLOUDY    55  29  36 E13       30.25F
6HR MIN TEMP:  31; 6HR MAX TEMP:  56;

LUDINGTON      CLOUDY    50  35  56 N8        30.28F
6HR MIN TEMP:  27; 6HR MAX TEMP:  52;

MARSHALL       SUNNY     55  31  40 E10G17    30.25F
6HR MIN TEMP:  28; 6HR MAX TEMP:  56;

MOUNT PLEASANT MOSUNNY   53  30  41 E6        30.27F
6HR MIN TEMP:  30; 6HR MAX TEMP:  53;

MUSKEGON       CLOUDY    54  31  41 E8G21     30.27F
6HR MIN TEMP:  31; 6HR MAX TEMP:  55;

SOUTH HAVEN    CLOUDY    54  32  43 E12       30.25F
$$
MIZ016>042-291900-
NORTHERN LOWER MICHIGAN

CITY           SKY/WX    TMP DP  RH WIND       PRES   REMARKS
ALPENA         MOSUNNY   42  29  59 NE9       30.37R
6HR MIN TEMP:  31; 6HR MAX TEMP:  44;

BEAVER ISLAND  MOSUNNY   40  28  62 E9        30.36F WCI  33
6HR MIN TEMP:  30; 6HR MAX TEMP:  41;

BELLAIRE       MOSUNNY   47  29  49 NE5       30.32F
6HR MIN TEMP:  25; 6HR MAX TEMP:  47;

CADILLAC       PTSUNNY   49  21  32 CALM      30.27S
CHARLEVOIX     CLOUDY    39  32  77 N9        30.37F WCI  32
6HR MIN TEMP:  30; 6HR MAX TEMP:  42;

FRANKFORT      PTSUNNY   46  32  57 N3        30.31F
GAYLORD        CLOUDY    45  28  51 VRB6      30.31S
6HR MIN TEMP:  32; 6HR MAX TEMP:  46;

GRAYLING       MOSUNNY   46  28  49 E8        30.31F
HARBOR SPRINGS CLOUDY    44  30  57 E5        30.34S
HOUGHTON LAKE  CLOUDY    48  29  47 W6        30.29F
6HR MIN TEMP:  27; 6HR MAX TEMP:  49;

MANISTEE       CLOUDY    44  34  67 NW9       30.29F
OSCODA         MOSUNNY   42  30  62 NE13      30.36R
6HR MIN TEMP:  31; 6HR MAX TEMP:  42;

PELLSTON       MOSUNNY   42  26  53 NE8       30.36S
6HR MIN TEMP:  30; 6HR MAX TEMP:  42;

ROGERS CITY    MOSUNNY   37  26  64 E8        30.39R WCI  31
TRAVERSE CITY  CLOUDY    43  33  68 NE6       30.31F
6HR MIN TEMP:  27; 6HR MAX TEMP:  43;

$$
MIZ007>008-015-291900-
EASTERN UPPER MICHIGAN

CITY           SKY/WX    TMP DP  RH WIND       PRES   REMARKS
KINROSS        SUNNY     40  19  43 VRB3      30.36F
6HR MIN TEMP:  26; 6HR MAX TEMP:  41;

MACKINAC ISLAN CLOUDY    35  24  62 SE7       30.37S WCI  30
6HR MIN TEMP:  28; 6HR MAX TEMP:  37;

NEWBERRY       CLOUDY    40  22  49 NE5       30.35F
6HR MIN TEMP:  27; 6HR MAX TEMP:  40;

S. S. MARIE    MOSUNNY   43  20  39 E6        30.36S
6HR MIN TEMP:  31; 6HR MAX TEMP:  43;

MUNISING         N/A     33  28  81 N8        30.37F WCI  26
6HR MIN TEMP:  28; 6HR MAX TEMP:  33;

$$
MIZ004>006-011>014-085-291900-
CENTRAL UPPER MICHIGAN

CITY           SKY/WX    TMP DP  RH WIND       PRES   REMARKS
MANISTIQUE     CLOUDY    38  30  71 SE10      30.36S WCI  32
6HR MIN TEMP:  27; 6HR MAX TEMP:  41;

ESCANABA       MOSUNNY   44  27  51 SE9       30.35F
6HR MIN TEMP:  30; 6HR MAX TEMP:  44;

SAWYER-GWINN   SUNNY     36  25  64 E5        30.36F WCI  32
$$
MIZ001>003-009>011-084-291900-
WESTERN UPPER MICHIGAN

CITY           SKY/WX    TMP DP  RH WIND       PRES   REMARKS
IRON MOUNTAIN  CLOUDY    44  24  45 CALM      30.31F
6HR MIN TEMP:  25; 6HR MAX TEMP:  45;

HOUGHTON       PTSUNNY   34  26  72 SE12      30.36F WCI  25
6HR MIN TEMP:  31; 6HR MAX TEMP:  34;

COPPER HARBOR    N/A     36  25  64 VRB6      30.39F WCI  31
6HR MIN TEMP:  27; 6HR MAX TEMP:  37;

IRONWOOD       CLOUDY    49  29  46 SE5       30.29F
6HR MIN TEMP:  30; 6HR MAX TEMP:  49;

$$

ABBREVIATIONS USED IN REMARKS
   TC - TEMPERATURE IN CELSIUS
  WCI - WIND CHILL INDEX
   HX - HEAT INDEX
  VSB - VISIBILITY




USA.gov is the U.S. government's official web portal to all federal, state and local government web resources and services.